| time (UTC) | temp F | wind direction | speed knots | gust knots | rain 1hr in | rain 24hr in | rain mn in | humidity % | barometer mb |
| 20260906211512 | 84 | 269 | 2.6 | 4.3 | 0.00 | 0.00 | 0.00 | 34 | 1022.9 |
| 20260906211017 | 82 | 172 | 3.5 | 7.0 | 0.00 | 0.00 | 0.00 | 35 | 1023.3 |
| 20260906210524 | 82 | 9 | 3.5 | 8.7 | 0.00 | 0.00 | 0.00 | 36 | 1023.3 |
| 20260906210019 | 82 | 189 | 3.5 | 7.0 | 0.00 | 0.00 | 0.00 | 36 | 1023.3 |
| 20260906205522 | 81 | 281 | 1.7 | 7.8 | 0.00 | 0.00 | 0.00 | 36 | 1023.3 |
| 20260906205015 | 82 | 137 | 3.5 | 7.8 | 0.00 | 0.00 | 0.00 | 36 | 1023.3 |
| 20260906204520 | 82 | 153 | 3.5 | 8.7 | 0.00 | 0.00 | 0.00 | 36 | 1023.3 |
| 20260906204014 | 82 | 116 | 3.5 | 7.8 | 0.00 | 0.00 | 0.00 | 35 | 1023.3 |
| 20260906203508 | 83 | 197 | 3.5 | 9.6 | 0.00 | 0.00 | 0.00 | 35 | 1023.8 |
| 20260906203038 | 84 | 172 | 3.5 | 9.6 | 0.00 | 0.00 | 0.00 | 35 | 1023.8 |
| 20260906202521 | 84 | 317 | 1.7 | 3.5 | 0.00 | 0.00 | 0.00 | 35 | 1023.8 |
| 20260906202013 | 80 | 316 | 2.6 | 7.8 | 0.00 | 0.00 | 0.00 | 36 | 1023.8 |
| 20260906201519 | 83 | 164 | 5.2 | 10.4 | 0.00 | 0.00 | 0.00 | 36 | 1023.8 |
| 20260906201043 | 84 | 230 | 3.5 | 7.8 | 0.00 | 0.01 | 0.00 | 35 | 1023.8 |
| 20260906200507 | 84 | 125 | 1.7 | 5.2 | 0.00 | 0.01 | 0.00 | 34 | 1023.8 |
| 20260906200025 | 84 | 233 | 2.6 | 5.2 | 0.00 | 0.01 | 0.00 | 34 | 1023.8 |
| 20260906195519 | 84 | 268 | 3.5 | 7.0 | 0.00 | 0.01 | 0.00 | 34 | 1023.8 |
| 20260906195011 | 83 | 281 | 2.6 | 3.5 | 0.00 | 0.01 | 0.00 | 36 | 1023.8 |
| 20260906194515 | 83 | 243 | 2.6 | 7.8 | 0.00 | 0.01 | 0.00 | 35 | 1023.8 |
| 20260906194010 | 84 | 170 | 3.5 | 7.0 | 0.00 | 0.01 | 0.00 | 35 | 1023.8 |
| 20260906193527 | 82 | 235 | 2.6 | 7.0 | 0.00 | 0.01 | 0.00 | 37 | 1023.8 |
| 20260906193021 | 82 | 156 | 5.2 | 13.0 | 0.00 | 0.01 | 0.00 | 36 | 1023.8 |
| 20260906192513 | 84 | 245 | 4.3 | 9.6 | 0.00 | 0.01 | 0.00 | 34 | 1024.2 |
| 20260906192020 | 83 | 207 | 2.6 | 8.7 | 0.00 | 0.01 | 0.00 | 35 | 1024.2 |
| 20260906191513 | 84 | 336 | 2.6 | 6.1 | 0.00 | 0.01 | 0.00 | 34 | 1024.2 |
| 20260906191021 | 84 | 208 | 1.7 | 4.3 | 0.00 | 0.01 | 0.00 | 36 | 1024.2 |
| 20260906190522 | 83 | 155 | 3.5 | 8.7 | 0.00 | 0.01 | 0.00 | 37 | 1024.2 |
| 20260906190019 | 83 | 124 | 2.6 | 6.1 | 0.00 | 0.01 | 0.00 | 37 | 1024.2 |
| 20260906185511 | 83 | 198 | 3.5 | 7.0 | 0.00 | 0.01 | 0.00 | 37 | 1024.2 |
| 20260906185015 | 85 | 107 | 3.5 | 7.8 | 0.00 | 0.01 | 0.00 | 36 | 1024.2 |
| 20260906184510 | 82 | 73 | 0.9 | 2.6 | 0.00 | 0.01 | 0.00 | 38 | 1024.2 |
| 20260906184027 | 83 | 199 | 3.5 | 7.8 | 0.00 | 0.01 | 0.00 | 37 | 1024.7 |
| 20260906183521 | 83 | 234 | 2.6 | 6.1 | 0.00 | 0.01 | 0.00 | 37 | 1024.7 |
| 20260906183014 | 82 | 116 | 2.6 | 6.1 | 0.00 | 0.01 | 0.00 | 39 | 1024.7 |
| 20260906182509 | 82 | 205 | 3.5 | 7.8 | 0.00 | 0.01 | 0.00 | 38 | 1024.7 |
| 20260906182028 | 82 | 242 | 2.6 | 5.2 | 0.00 | 0.01 | 0.00 | 36 | 1024.7 |
| 20260906181507 | 83 | 274 | 1.7 | 3.5 | 0.00 | 0.01 | 0.00 | 37 | 1024.7 |
| 20260906181037 | 82 | 312 | 1.7 | 3.5 | 0.00 | 0.01 | 0.00 | 38 | 1025.1 |
| 20260906180507 | 83 | 92 | 2.6 | 5.2 | 0.00 | 0.01 | 0.00 | 38 | 1025.1 |
| 20260906180022 | 82 | 269 | 1.7 | 3.5 | 0.00 | 0.01 | 0.00 | 39 | 1025.1 |
| 20260906175519 | 82 | 308 | 2.6 | 7.0 | 0.00 | 0.01 | 0.00 | 39 | 1025.1 |
| 20260906175011 | 81 | 257 | 2.6 | 4.3 | 0.00 | 0.01 | 0.00 | 39 | 1025.1 |
| 20260906174527 | 83 | 128 | 2.6 | 6.1 | 0.00 | 0.01 | 0.00 | 39 | 1025.1 |
| 20260906174009 | 82 | 259 | 1.7 | 4.3 | 0.00 | 0.01 | 0.00 | 40 | 1025.1 |
| 20260906173540 | 84 | 316 | 1.7 | 2.6 | 0.00 | 0.01 | 0.00 | 39 | 1025.1 |
| 20260906173048 | 82 | 326 | 1.7 | 3.5 | 0.00 | 0.01 | 0.00 | 41 | 1025.5 |
| 20260906172525 | 82 | 296 | 1.7 | 3.5 | 0.00 | 0.01 | 0.00 | 41 | 1025.5 |
| 20260906172009 | 82 | 79 | 1.7 | 2.6 | 0.00 | 0.01 | 0.00 | 42 | 1025.5 |
| 20260906171526 | 81 | 324 | 1.7 | 3.5 | 0.00 | 0.01 | 0.00 | 43 | 1025.5 |
| 20260906171009 | 80 | 3 | 1.7 | 7.0 | 0.00 | 0.01 | 0.00 | 44 | 1025.5 |
| 20260906170513 | 79 | 281 | 1.7 | 5.2 | 0.00 | 0.01 | 0.00 | 44 | 1025.5 |
| 20260906170007 | 79 | 292 | 1.7 | 3.5 | 0.00 | 0.01 | 0.00 | 45 | 1025.5 |
| 20260906165538 | 78 | 286 | 1.7 | 2.6 | 0.00 | 0.01 | 0.00 | 47 | 1025.5 |
| 20260906165020 | 77 | 199 | 1.7 | 6.1 | 0.00 | 0.01 | 0.00 | 48 | 1025.5 |
| 20260906164512 | 77 | 272 | 1.7 | 3.5 | 0.00 | 0.01 | 0.00 | 49 | 1025.5 |
| 20260906164019 | 75 | 283 | 1.7 | 3.5 | 0.00 | 0.01 | 0.00 | 50 | 1025.5 |
| 20260906163523 | 75 | 264 | 1.7 | 5.2 | 0.00 | 0.01 | 0.00 | 51 | 1026.0 |
| 20260906163028 | 75 | 241 | 2.6 | 7.0 | 0.00 | 0.01 | 0.00 | 51 | 1026.0 |
| 20260906162511 | 75 | 280 | 1.7 | 3.5 | 0.00 | 0.01 | 0.00 | 52 | 1026.0 |
| 20260906162040 | 74 | 116 | 2.6 | 4.3 | 0.00 | 0.01 | 0.00 | 53 | 1026.0 |
| 20260906161510 | 74 | 262 | 1.7 | 3.5 | 0.00 | 0.01 | 0.00 | 54 | 1026.0 |
| 20260906161014 | 73 | 266 | 2.6 | 7.0 | 0.00 | 0.01 | 0.00 | 55 | 1026.0 |
| 20260906160508 | 74 | 250 | 2.6 | 6.1 | 0.00 | 0.01 | 0.00 | 55 | 1026.0 |
| 20260906160023 | 74 | 254 | 1.7 | 3.5 | 0.00 | 0.01 | 0.00 | 55 | 1026.0 |
| 20260906155520 | 72 | 245 | 2.6 | 7.0 | 0.00 | 0.01 | 0.00 | 57 | 1026.0 |
| 20260906155012 | 72 | 250 | 3.5 | 7.8 | 0.00 | 0.01 | 0.00 | 58 | 1026.0 |
| 20260906154532 | 71 | 208 | 3.5 | 8.7 | 0.00 | 0.01 | 0.00 | 59 | 1025.5 |
| 20260906154024 | 72 | 272 | 2.6 | 7.0 | 0.00 | 0.01 | 0.00 | 58 | 1025.5 |
| 20260906153518 | 71 | 119 | 2.6 | 4.3 | 0.00 | 0.01 | 0.00 | 59 | 1025.5 |
| 20260906153012 | 70 | 225 | 2.6 | 7.0 | 0.00 | 0.01 | 0.00 | 60 | 1025.5 |
| 20260906152516 | 70 | 227 | 4.3 | 7.8 | 0.00 | 0.01 | 0.00 | 60 | 1025.5 |
| 20260906152010 | 70 | 228 | 3.5 | 7.8 | 0.00 | 0.01 | 0.00 | 61 | 1025.5 |
| 20260906151514 | 69 | 225 | 2.6 | 5.2 | 0.00 | 0.01 | 0.00 | 62 | 1025.5 |
| 20260906151034 | 70 | 248 | 2.6 | 6.1 | 0.00 | 0.01 | 0.00 | 61 | 1025.5 |
| 20260906150033 | 69 | 209 | 3.5 | 8.7 | 0.00 | 0.01 | 0.00 | 62 | 1025.5 |
| 20260906145009 | 67 | 221 | 3.5 | 7.0 | 0.00 | 0.01 | 0.00 | 66 | 1025.5 |
| 20260906144515 | 67 | 246 | 3.5 | 10.4 | 0.00 | 0.01 | 0.00 | 67 | 1025.5 |
| 20260906144009 | 66 | 204 | 4.3 | 10.4 | 0.00 | 0.01 | 0.00 | 69 | 1025.5 |
| 20260906143513 | 65 | 199 | 5.2 | 11.3 | 0.00 | 0.01 | 0.00 | 69 | 1025.5 |
| 20260906143019 | 65 | 182 | 6.1 | 10.4 | 0.00 | 0.01 | 0.00 | 69 | 1025.5 |
| 20260906142525 | 65 | 200 | 5.2 | 9.6 | 0.00 | 0.01 | 0.00 | 69 | 1025.5 |
| 20260906142007 | 64 | 195 | 5.2 | 7.8 | 0.00 | 0.01 | 0.00 | 68 | 1025.5 |
| 20260906141526 | 64 | 188 | 5.2 | 9.6 | 0.00 | 0.01 | 0.00 | 67 | 1025.5 |
| 20260906141007 | 65 | 199 | 5.2 | 11.3 | 0.00 | 0.01 | 0.00 | 66 | 1025.5 |
| 20260906140523 | 64 | 193 | 4.3 | 9.6 | 0.00 | 0.01 | 0.00 | 67 | 1025.5 |
| 20260906140015 | 63 | 176 | 4.3 | 7.8 | 0.00 | 0.01 | 0.00 | 69 | 1025.5 |
| 20260906135523 | 63 | 186 | 4.3 | 7.8 | 0.00 | 0.01 | 0.00 | 70 | 1026.0 |
| 20260906135028 | 63 | 177 | 5.2 | 8.7 | 0.00 | 0.01 | 0.00 | 69 | 1026.0 |
| 20260906134512 | 63 | 183 | 4.3 | 7.0 | 0.00 | 0.01 | 0.00 | 70 | 1025.5 |
| 20260906133510 | 63 | 192 | 5.2 | 8.7 | 0.00 | 0.01 | 0.00 | 64 | 1025.5 |
| 20260906133014 | 64 | 208 | 5.2 | 10.4 | 0.00 | 0.01 | 0.00 | 62 | 1025.5 |
| 20260906132508 | 63 | 211 | 4.3 | 8.7 | 0.00 | 0.01 | 0.00 | 62 | 1025.5 |
| 20260906132025 | 62 | 219 | 4.3 | 8.7 | 0.00 | 0.01 | 0.00 | 64 | 1025.5 |
| 20260906131522 | 62 | 204 | 5.2 | 9.6 | 0.00 | 0.01 | 0.00 | 66 | 1025.5 |
| 20260906131014 | 62 | 230 | 4.3 | 8.7 | 0.00 | 0.01 | 0.00 | 65 | 1025.5 |
| 20260906130507 | 62 | 232 | 4.3 | 13.9 | 0.00 | 0.01 | 0.00 | 64 | 1025.5 |
| 20260906130048 | 61 | 215 | 4.3 | 11.3 | 0.00 | 0.01 | 0.00 | 64 | 1025.5 |
| 20260906125548 | 61 | 231 | 3.5 | 7.8 | 0.00 | 0.01 | 0.00 | 64 | 1025.5 |
| 20260906124547 | 61 | 245 | 2.6 | 5.2 | 0.00 | 0.01 | 0.00 | 65 | 1025.5 |
| 20260906123509 | 60 | 243 | 2.6 | 7.0 | 0.00 | 0.01 | 0.00 | 69 | 1025.5 |
| 20260906123012 | 60 | 258 | 2.6 | 7.0 | 0.00 | 0.01 | 0.00 | 73 | 1025.5 |
| 20260906122508 | 60 | 262 | 1.7 | 3.5 | 0.00 | 0.01 | 0.00 | 75 | 1025.5 |
| 20260906122036 | 60 | 264 | 2.6 | 4.3 | 0.00 | 0.01 | 0.00 | 74 | 1025.1 |
| 20260906121508 | 61 | 271 | 2.6 | 3.5 | 0.00 | 0.01 | 0.00 | 75 | 1025.1 |
| 20260906121015 | 61 | 271 | 2.6 | 5.2 | 0.00 | 0.01 | 0.00 | 74 | 1025.1 |
| 20260906120012 | 62 | 261 | 2.6 | 3.5 | 0.00 | 0.01 | 0.00 | 72 | 1025.5 |
| 20260906115506 | 62 | 256 | 2.6 | 3.5 | 0.00 | 0.01 | 0.00 | 71 | 1025.5 |
| 20260906115011 | 62 | 232 | 2.6 | 7.0 | 0.00 | 0.01 | 0.00 | 71 | 1025.5 |
| 20260906114515 | 62 | 229 | 2.6 | 6.1 | 0.00 | 0.01 | 0.00 | 72 | 1025.5 |
| 20260906114009 | 62 | 259 | 2.6 | 5.2 | 0.00 | 0.01 | 0.00 | 71 | 1025.5 |
| 20260906113514 | 62 | 226 | 3.5 | 6.1 | 0.00 | 0.01 | 0.00 | 71 | 1025.5 |
| 20260906113009 | 62 | 252 | 2.6 | 6.1 | 0.00 | 0.01 | 0.00 | 71 | 1025.5 |
| 20260906112514 | 62 | 239 | 3.5 | 7.8 | 0.00 | 0.01 | 0.00 | 71 | 1025.5 |
| 20260906112045 | 62 | 264 | 2.6 | 6.1 | 0.00 | 0.01 | 0.00 | 70 | 1025.5 |
| 20260906111537 | 62 | 250 | 3.5 | 8.7 | 0.00 | 0.01 | 0.00 | 70 | 1025.5 |
| 20260906111056 | 61 | 214 | 4.3 | 7.8 | 0.00 | 0.01 | 0.00 | 71 | 1025.5 |
| 20260906110033 | 60 | 217 | 3.5 | 6.1 | 0.00 | 0.01 | 0.00 | 73 | 1025.5 |
| 20260906105543 | 60 | 213 | 2.6 | 7.0 | 0.00 | 0.01 | 0.00 | 74 | 1025.5 |
| 20260906104540 | 60 | 188 | 3.5 | 5.2 | 0.00 | 0.01 | 0.00 | 75 | 1025.5 |
| 20260906104034 | 60 | 220 | 3.5 | 8.7 | 0.00 | 0.01 | 0.00 | 75 | 1025.5 |
| 20260906103554 | 61 | 237 | 2.6 | 7.0 | 0.00 | 0.01 | 0.00 | 75 | 1025.5 |
| 20260906103009 | 61 | 248 | 2.6 | 5.2 | 0.00 | 0.01 | 0.00 | 75 | 1025.5 |
| 20260906102539 | 61 | 230 | 2.6 | 6.1 | 0.00 | 0.01 | 0.00 | 76 | 1025.1 |
| 20260906102009 | 61 | 252 | 3.5 | 11.3 | 0.00 | 0.01 | 0.00 | 76 | 1025.1 |
| 20260906101513 | 60 | 258 | 3.5 | 7.0 | 0.00 | 0.01 | 0.00 | 77 | 1025.1 |
| 20260906101009 | 60 | 228 | 3.5 | 9.6 | 0.00 | 0.01 | 0.00 | 77 | 1025.5 |
| 20260906100541 | 61 | 200 | 4.3 | 7.8 | 0.00 | 0.01 | 0.00 | 77 | 1025.5 |
| 20260906095514 | 60 | 242 | 3.5 | 9.6 | 0.00 | 0.01 | 0.00 | 78 | 1025.1 |
| 20260906095034 | 60 | 241 | 3.5 | 7.0 | 0.00 | 0.01 | 0.00 | 78 | 1025.1 |
| 20260906094526 | 60 | 240 | 3.5 | 7.0 | 0.00 | 0.01 | 0.00 | 78 | 1025.1 |
| 20260906094008 | 60 | 252 | 3.5 | 8.7 | 0.00 | 0.01 | 0.00 | 78 | 1025.1 |
| 20260906093536 | 60 | 234 | 3.5 | 7.8 | 0.00 | 0.01 | 0.00 | 79 | 1025.1 |
| 20260906093044 | 60 | 235 | 3.5 | 7.8 | 0.00 | 0.01 | 0.00 | 79 | 1025.1 |
| 20260906092513 | 60 | 222 | 4.3 | 9.6 | 0.00 | 0.01 | 0.00 | 80 | 1025.1 |
| 20260906092031 | 60 | 200 | 5.2 | 13.9 | 0.00 | 0.01 | 0.00 | 80 | 1025.1 |
| 20260906091550 | 60 | 231 | 5.2 | 13.0 | 0.00 | 0.01 | 0.00 | 80 | 1025.1 |
| 20260906091009 | 60 | 208 | 6.1 | 15.6 | 0.00 | 0.01 | 0.00 | 80 | 1025.1 |
| 20260906090512 | 60 | 230 | 5.2 | 12.2 | 0.00 | 0.01 | 0.00 | 80 | 1025.1 |
| 20260906090007 | 60 | 243 | 4.3 | 9.6 | 0.00 | 0.01 | 0.00 | 80 | 1025.1 |
| 20260906085511 | 60 | 230 | 3.5 | 8.7 | 0.00 | 0.01 | 0.00 | 79 | 1025.1 |
| 20260906085015 | 60 | 232 | 4.3 | 9.6 | 0.00 | 0.01 | 0.00 | 79 | 1025.1 |
| 20260906084510 | 60 | 224 | 4.3 | 9.6 | 0.00 | 0.01 | 0.00 | 80 | 1025.1 |
| 20260906083510 | 60 | 225 | 6.1 | 15.6 | 0.00 | 0.01 | 0.00 | 79 | 1025.5 |
| 20260906083039 | 60 | 236 | 4.3 | 9.6 | 0.00 | 0.01 | 0.00 | 77 | 1025.5 |
| 20260906082514 | 61 | 352 | 5.2 | 13.0 | 0.00 | 0.01 | 0.00 | 76 | 1025.1 |
| 20260906081510 | 61 | 208 | 5.2 | 12.2 | 0.00 | 0.01 | 0.00 | 76 | 1025.5 |
| 20260906081016 | 61 | 234 | 4.3 | 17.4 | 0.00 | 0.01 | 0.00 | 75 | 1025.5 |
| 20260906080525 | 62 | 308 | 3.5 | 15.6 | 0.00 | 0.01 | 0.00 | 75 | 1025.5 |
| 20260906075028 | 63 | 258 | 2.6 | 6.1 | 0.00 | 0.01 | 0.00 | 70 | 1025.5 |
| 20260906074514 | 63 | 267 | 2.6 | 5.2 | 0.00 | 0.01 | 0.00 | 68 | 1025.5 |
| 20260906074059 | 63 | 227 | 3.5 | 8.7 | 0.00 | 0.01 | 0.00 | 68 | 1025.5 |
| 20260906072501 | 63 | 214 | 2.6 | 7.8 | 0.00 | 0.01 | 0.00 | 68 | 1025.5 |
| 20260906061535 | 64 | 171 | 4.3 | 10.4 | 0.00 | 0.01 | 0.00 | 69 | 1025.5 |
| 20260906061039 | 64 | 164 | 4.3 | 9.6 | 0.00 | 0.01 | 0.00 | 71 | 1025.5 |
| 20260906060508 | 64 | 163 | 4.3 | 7.0 | 0.00 | 0.01 | 0.00 | 73 | 1026.0 |
| 20260906060017 | 64 | 168 | 5.2 | 11.3 | 0.00 | 0.01 | 0.00 | 76 | 1026.0 |
| 20260906055557 | 64 | 151 | 4.3 | 8.7 | 0.00 | 0.01 | 0.01 | 77 | 1025.5 |
| 20260906055013 | 63 | 176 | 7.0 | 14.8 | 0.00 | 0.01 | 0.01 | 80 | 1026.0 |
| 20260906054508 | 63 | 162 | 6.1 | 11.3 | 0.00 | 0.01 | 0.01 | 81 | 1026.0 |
| 20260906054013 | 63 | 157 | 5.2 | 8.7 | 0.00 | 0.01 | 0.01 | 80 | 1026.0 |
| 20260906053508 | 63 | 162 | 5.2 | 9.6 | 0.00 | 0.01 | 0.01 | 80 | 1026.0 |
| 20260906053024 | 63 | 158 | 4.3 | 7.0 | 0.00 | 0.01 | 0.01 | 79 | 1026.0 |
| 20260906052520 | 63 | 146 | 3.5 | 8.7 | 0.00 | 0.01 | 0.01 | 78 | 1026.0 |
| 20260906052023 | 64 | 160 | 4.3 | 7.8 | 0.00 | 0.01 | 0.01 | 77 | 1026.4 |
| 20260906051543 | 64 | 156 | 4.3 | 7.8 | 0.00 | 0.01 | 0.01 | 77 | 1026.0 |
| 20260906051049 | 64 | 178 | 4.3 | 6.1 | 0.00 | 0.01 | 0.01 | 76 | 1026.4 |
| 20260906050543 | 64 | 149 | 6.1 | 11.3 | 0.00 | 0.01 | 0.01 | 76 | 1026.4 |
| 20260906050006 | 64 | 149 | 4.3 | 8.7 | 0.00 | 0.01 | 0.01 | 75 | 1026.4 |
| 20260906043512 | 65 | 152 | 3.5 | 6.1 | 0.00 | 0.01 | 0.01 | 72 | 1026.0 |
| 20260906042522 | 66 | 164 | 3.5 | 6.1 | 0.00 | 0.01 | 0.01 | 69 | 1026.0 |
| 20260906042016 | 66 | 154 | 3.5 | 7.8 | 0.00 | 0.01 | 0.01 | 67 | 1026.0 |
| 20260906041014 | 65 | 159 | 3.5 | 6.1 | 0.00 | 0.01 | 0.01 | 68 | 1026.0 |
| 20260906040509 | 65 | 151 | 2.6 | 5.2 | 0.00 | 0.01 | 0.01 | 69 | 1026.0 |
| 20260906040023 | 65 | 165 | 3.5 | 6.1 | 0.00 | 0.01 | 0.01 | 68 | 1026.4 |
| 20260906035510 | 65 | 157 | 3.5 | 6.1 | 0.00 | 0.01 | 0.01 | 67 | 1026.4 |
| 20260906034508 | 65 | 155 | 3.5 | 6.1 | 0.00 | 0.01 | 0.01 | 65 | 1026.4 |
| 20260906034012 | 65 | 154 | 2.6 | 5.2 | 0.00 | 0.01 | 0.01 | 65 | 1026.4 |
| 20260906033506 | 65 | 147 | 3.5 | 6.1 | 0.00 | 0.01 | 0.01 | 64 | 1026.4 |
| 20260906033010 | 66 | 141 | 2.6 | 4.3 | 0.00 | 0.01 | 0.01 | 63 | 1026.4 |
| 20260906032530 | 66 | 136 | 1.7 | 3.5 | 0.00 | 0.01 | 0.01 | 62 | 1026.9 |
| 20260906032010 | 66 | 147 | 2.6 | 4.3 | 0.00 | 0.01 | 0.01 | 61 | 1026.9 |
| 20260906031514 | 66 | 123 | 1.7 | 6.1 | 0.00 | 0.01 | 0.01 | 59 | 1026.9 |
| 20260906031015 | 66 | 159 | 1.7 | 4.3 | 0.00 | 0.01 | 0.01 | 57 | 1026.9 |
| 20260906030047 | 66 | 144 | 1.7 | 3.5 | 0.00 | 0.01 | 0.01 | 56 | 1026.9 |
| 20260906025511 | 66 | 140 | 2.6 | 4.3 | 0.00 | 0.01 | 0.01 | 56 | 1026.4 |
| 20260906022508 | 67 | 159 | 2.6 | 5.2 | 0.00 | 0.01 | 0.01 | 52 | 1026.0 |
| 20260906022050 | 67 | 120 | 1.7 | 2.6 | 0.00 | 0.01 | 0.01 | 52 | 1026.0 |
| 20260906021520 | 66 | 115 | 1.7 | 2.6 | 0.00 | 0.01 | 0.01 | 52 | 1026.0 |
| 20260906021012 | 66 | 130 | 1.7 | 2.6 | 0.00 | 0.01 | 0.01 | 52 | 1026.0 |
| 20260906020506 | 66 | 98 | 1.7 | 2.6 | 0.00 | 0.01 | 0.01 | 52 | 1026.0 |
| 20260906015025 | 67 | 100 | 0.9 | 1.7 | 0.00 | 0.01 | 0.01 | 51 | 1026.0 |
| 20260906013020 | 67 | 75 | 1.7 | 2.6 | 0.00 | 0.01 | 0.01 | 50 | 1026.0 |
| 20260906011053 | 68 | 85 | 0.9 | 1.7 | 0.00 | 0.01 | 0.01 | 49 | 1026.0 |
| 20260906010548 | 68 | 27 | 0.9 | 1.7 | 0.00 | 0.01 | 0.01 | 49 | 1026.0 |
| 20260906010031 | 68 | 57 | 0.9 | 2.6 | 0.00 | 0.01 | 0.01 | 48 | 1026.0 |
| 20260906005511 | 69 | 88 | 1.7 | 7.0 | 0.00 | 0.01 | 0.01 | 48 | 1026.0 |
| 20260906005041 | 70 | 101 | 2.6 | 7.0 | 0.00 | 0.01 | 0.01 | 47 | 1026.0 |
| 20260906004512 | 70 | 78 | 1.7 | 5.2 | 0.00 | 0.01 | 0.01 | 46 | 1026.0 |
| 20260906004040 | 71 | 102 | 3.5 | 7.0 | 0.00 | 0.01 | 0.01 | 44 | 1026.0 |
| 20260906003511 | 71 | 100 | 1.7 | 6.1 | 0.00 | 0.01 | 0.01 | 43 | 1026.0 |
| 20260906003021 | 71 | 90 | 1.7 | 3.5 | 0.00 | 0.01 | 0.01 | 44 | 1026.0 |
| 20260906001539 | 72 | 112 | 1.7 | 2.6 | 0.00 | 0.01 | 0.01 | 43 | 1026.0 |
| 20260906000056 | 72 | 75 | 1.7 | 7.0 | 0.00 | 0.01 | 0.01 | 43 | 1026.0 |
| 20260905235537 | 72 | 14 | 0.9 | 2.6 | 0.00 | 0.01 | 0.01 | 42 | 1026.0 |
| 20260905235033 | 73 | 28 | 0.9 | 2.6 | 0.00 | 0.01 | 0.01 | 42 | 1025.5 |
| 20260905234523 | 74 | 79 | 1.7 | 3.5 | 0.00 | 0.01 | 0.01 | 41 | 1025.5 |
| 20260905234019 | 75 | 40 | 0.9 | 3.5 | 0.00 | 0.01 | 0.01 | 40 | 1025.5 |
| 20260905233511 | 75 | 110 | 2.6 | 6.1 | 0.00 | 0.01 | 0.01 | 40 | 1025.5 |
| 20260905233016 | 76 | 138 | 2.6 | 5.2 | 0.00 | 0.01 | 0.01 | 39 | 1025.5 |
| 20260905232535 | 76 | 138 | 2.6 | 4.3 | 0.00 | 0.01 | 0.01 | 38 | 1025.5 |
| 20260905232008 | 76 | 127 | 2.6 | 6.1 | 0.00 | 0.01 | 0.01 | 38 | 1025.5 |
| 20260905231016 | 77 | 38 | 1.7 | 2.6 | 0.00 | 0.01 | 0.01 | 34 | 1025.5 |
| 20260905230535 | 76 | 260 | 1.7 | 5.2 | 0.00 | 0.01 | 0.01 | 35 | 1025.5 |
| 20260905230040 | 76 | 271 | 1.7 | 5.2 | 0.00 | 0.01 | 0.01 | 35 | 1025.5 |
| 20260905225547 | 76 | 193 | 2.6 | 7.0 | 0.00 | 0.01 | 0.01 | 36 | 1025.5 |
| 20260905225016 | 76 | 325 | 1.7 | 3.5 | 0.00 | 0.01 | 0.01 | 36 | 1025.5 |
| 20260905224510 | 76 | 45 | 1.7 | 3.5 | 0.00 | 0.01 | 0.01 | 36 | 1025.5 |
| 20260905224040 | 77 | 158 | 1.7 | 5.2 | 0.00 | 0.01 | 0.01 | 36 | 1025.5 |
| 20260905223509 | 77 | 195 | 1.7 | 4.3 | 0.00 | 0.01 | 0.01 | 35 | 1025.5 |
| 20260905223013 | 77 | 230 | 2.6 | 6.1 | 0.00 | 0.01 | 0.01 | 35 | 1025.5 |
| 20260905222508 | 77 | 102 | 1.7 | 6.1 | 0.00 | 0.01 | 0.01 | 34 | 1025.5 |
| 20260905222054 | 77 | 162 | 3.5 | 8.7 | 0.00 | 0.01 | 0.01 | 34 | 1025.5 |
| 20260905221015 | 78 | 320 | 0.9 | 3.5 | 0.00 | 0.01 | 0.01 | 34 | 1025.5 |
| 20260905220520 | 79 | 196 | 2.6 | 5.2 | 0.00 | 0.01 | 0.01 | 33 | 1025.5 |
| 20260905220026 | 78 | 169 | 2.6 | 6.1 | 0.00 | 0.01 | 0.01 | 34 | 1025.5 |
| 20260905215520 | 79 | 188 | 3.5 | 7.0 | 0.00 | 0.01 | 0.01 | 33 | 1025.5 |
| 20260905215013 | 79 | 144 | 1.7 | 3.5 | 0.00 | 0.01 | 0.01 | 34 | 1025.5 |
| 20260905214506 | 79 | 139 | 2.6 | 5.2 | 0.00 | 0.01 | 0.01 | 35 | 1025.5 |
| 20260905214048 | 77 | 299 | 0.9 | 3.5 | 0.00 | 0.01 | 0.01 | 36 | 1025.5 |
| 20260905213556 | 77 | 50 | 1.7 | 4.3 | 0.00 | 0.01 | 0.01 | 36 | 1025.5 |
| 20260905213037 | 76 | 190 | 2.6 | 5.2 | 0.00 | 0.01 | 0.01 | 36 | 1025.5 |
| 20260905212519 | 77 | 197 | 3.5 | 5.2 | 0.00 | 0.01 | 0.01 | 36 | 1025.5 |
| 20260905212011 | 78 | 184 | 2.6 | 6.1 | 0.00 | 0.01 | 0.01 | 36 | 1025.5 |